Location: Unspecified
(0.0000°N, 0.0000°E)
Time: 23:02:55
(UTC+00:00)

S-56A Canister/Altair - Pass Details

Date: 05 October 2020
Orbit: 633 x 2499 km, 38.9° (Epoch: 28 October)

Event Time Altitude Azimuth Distance (km) Brightness Sun altitude
Rises 07:07:12 0° 200° (SSW) 3,699 10.9 19.6°
Reaches altitude 10° 07:10:08 10° 185° (S) 2,993 10.6 20.4°
Maximum altitude 07:16:00 24° 133° (SE) 2,573 11.3 21.8°
Drops below altitude 10° 07:23:50 10° 84° (E) 4,118 13.1 23.8°
Sets 07:28:41 0° 73° (ENE) 5,449 13.0 25.0°
